Location: Newark
(51.5306°N, 0.2243°W)
Time: 18:41:48
(UTC+00:00)

Envisat - Pass Details

Date: 24 September 2019
Orbit: 764 x 766 km, 98.1° (Epoch: 20 October)

Event Time Altitude Azimuth Distance (km) Brightness Sun altitude
Rises 18:35:45 0° 184° (S) 3,222 6.2 -7.1°
Reaches altitude 10° 18:38:09 10° 191° (S) 2,300 5.5 -7.5°
Maximum altitude 18:42:58 43° 263° (W) 1,079 4.4 -8.2°
Drops below altitude 10° 18:47:49 10° 334° (NNW) 2,316 6.0 -8.9°
Sets 18:50:15 0° 341° (NNW) 3,247 6.7 -9.3°
